This demonstration page uses our WeatherBlox Daily Observations layout. Learn more.

Left ArrowRight Arrow

44.31136, -96.79839

Hourly Observations for August 6, 2017

Temp ( °F °C ) Dew Point ( °F °C ) Humidity (%) Winds ( mph kmh ) Pressure ( in mb ) Visibility ( mi km ) Precip ( " mm )
12:56 am 00:56 Mostly Cloudy 60 15.6 58 14.4 93 93 Calm 30.05 1018 N/A 0.00 0.00
1:56 am 01:56 Cloudy 62 16.7 58 14.4 86 86 Calm 30.05 1018 N/A 0.00 0.00
2:56 am 02:56 Cloudy 61 16.1 58 14.4 90 90 SSE 5 7 30.04 1017 N/A 0.00 0.00
3:56 am 03:56 Mostly Cloudy 60 15.6 57 13.9 90 90 SE 5 7 30.05 1018 N/A 0.00 0.00
4:56 am 04:56 Mostly Cloudy 58 14.4 57 13.9 97 97 Calm 30.06 1018 N/A 0.00 0.00
6:56 am 06:56 Cloudy 60 15.6 57 13.9 90 90 ENE 3 6 30.06 1018 N/A 0.00 0.00
7:56 am 07:56 Cloudy 60 15.6 57 13.9 90 90 Calm 30.06 1018 N/A 0.00 0.00
8:56 am 08:56 Mostly Cloudy 62 16.7 59 15 90 90 Calm 30.07 1018 N/A 0.00 0.00
9:56 am 09:56 Mostly Cloudy 65 18.3 58 14.4 78 78 N 5 7 30.08 1019 N/A 0.00 0.00
10:56 am 10:56 Cloudy 66 18.9 57 13.9 73 73 Calm 30.08 1019 N/A 0.00 0.00
11:56 am 11:56 Cloudy 67 19.4 57 13.9 71 71 E 7 11 30.09 1019 N/A 0.00 0.00
12:56 pm 12:56 Cloudy 67 19.4 58 14.4 73 73 SE 8 13 30.09 1019 N/A 0.00 0.00
1:56 pm 13:56 Cloudy 67 19.4 58 14.4 73 73 SE 6 9 30.09 1019 N/A 0.00 0.00
2:56 pm 14:56 Cloudy 66 18.9 59 15 78 78 ENE 10 17 30.09 1019 N/A 0.00 0.00
3:04 pm 15:04 Cloudy 64 18 59 15 83 83 NE 12 19 30.03 1017 N/A 0.00 0.00
3:42 pm 15:42 Cloudy 63 17 59 15 88 88 NE 9 15 30.03 1017 N/A 0.00 0.00
3:56 pm 15:56 Cloudy 62 16.7 59 15 90 90 NE 8 13 30.11 1020 N/A 0.00 0.00
4:10 pm 16:10 Cloudy with Light Rain 63 17 59 15 88 88 ENE 8 13 30.03 1017 N/A 0.00 0.03
4:23 pm 16:23 Cloudy with Light Rain 63 17 61 16 94 94 NE 8 13 30.03 1017 N/A 0.00 0.03
4:56 pm 16:56 Cloudy 61 16.1 57 13.9 87 87 ENE 7 11 30.11 1020 N/A 0.00 0.03
5:56 pm 17:56 Cloudy 62 16.7 58 14.4 86 86 E 7 11 30.10 1019 N/A 0.00 0.03
6:56 pm 18:56 Cloudy with Rain 61 16.1 59 15 93 93 NNE 6 9 30.12 1020 N/A 0.04 1.02
7:56 pm 19:56 Cloudy with Light Rain 61 16.1 58 14.4 90 90 NE 7 11 30.11 1020 N/A 0.01 0.25
8:56 pm 20:56 Cloudy 61 16.1 58 14.4 90 90 ENE 3 6 30.12 1020 N/A 0.00 0.03
9:56 pm 21:56 Cloudy 60 15.6 58 14.4 93 93 Calm 30.13 1020 N/A 0.00 0.00
10:56 pm 22:56 Cloudy 59 15 58 14.4 96 96 NNW 3 6 30.14 1021 N/A 0.01 0.25
11:56 pm 23:56 Cloudy 59 15 57 13.9 93 93 NNE 3 6 30.15 1021 N/A 0.00 0.00

Powered by AerisWeather